Погода в Романцево

Россия / Московская область     55°18′58″N   37°35′01″E
темп.,
°C
ветер,
м/с
пор.,
м/с
влажн.,
%
обл.,
%
осадки,
мм/ч
давл.,
гПа
погр.,
м
24 сентября, пт
пт2400:00+6ю259644 0.0 1009117
03:00+6ююз3696100 0.0 1008245
06:00+5ю3796100 0.0 1006261
09:00+7ююв4984100 0.0 1005663
12:00+9ю61274100 0.1 10041364
15:00+9ююв6106999 0.2 10031206
18:00+9ююв51073100 0.0 1004892
21:00+9ююв41175100 0.1 10041241
25 сентября, сб
сб2500:00+8ююв4981100 0.0 1005753
03:00+8юв3987100 0.1 1005576
06:00+7ююв3891100 0.1 1006407
09:00+8ю3887100 0.1 1007475
12:00+10ююз3682100 0.0 1008674
15:00+11ю4576100 0.1 1007795
18:00+10ю3785100 0.0 1008360
21:00+9ю3791100 0.2 1007221
26 сентября, вс
вс2600:00+8ююз2789100 0.0 1006275
03:00+8ююз2797100 0.8 1006393
06:00+8з3898100 0.8 1005658
09:00+9сз4994100 1.3 1006703
12:00+8сз6989100 1.1 10071083
15:00+8сз61189100 2.6 10091182
18:00+8ссз71294100 2.4 1010997
21:00+8с51193100 2.9 1013635
27 сентября, пн
пн2700:00+8с4995100 0.0 1015449
03:00+8с4995100 0.1 1017417
06:00+8с499472 0.0 1019398
09:00+9с41087100 0.0 1020546
12:00+11с5771100 0.0 1021968
15:00+11ссв4774100 0.2 1022971
18:00+9св4886100 0.3 1024597
21:00+8ссв389490 0.4 1025416
28 сентября, вт
вт2800:00+8ссв3793100 0.0 1026470
03:00+7ссв3794100 0.0 1027429
06:00+7ссв3795100 0.1 1028506
09:00+7св3694100 0.2 1030488
12:00+9всв3579100 0.1 1031777
15:00+9св3472100 0.1 1031959
18:00+8ссв2379100 0.0 1032144
21:00+7ссв2380100 0.0 103371